Location: Castelbiague
(43.0361°N, 0.9246°E)
Time: 08:06:07
(UTC+00:00)

ATLAS 3B R/B - Pass Details

Date: 17 June 2021
Orbit: 1003 x 1191 km, 63.8° (Epoch: 21 July)

Event Time Altitude Azimuth Distance (km) Brightness Sun altitude
Rises 22:17:22 0° 221° (SW) 3,717 5.3 -19.7°
Reaches altitude 10° 22:19:56 10° 223° (SW) 2,776 4.7 -19.9°
Maximum altitude 22:26:25 71° 308° (NW) 1,078 2.8 -20.3°
Drops below altitude 10° 22:33:10 10° 33° (NNE) 2,876 5.4 -20.8°
Sets 22:35:53 0° 35° (NE) 3,859 6.1 -21.0°
